Location: Eastlake (historical)
(39.0077°N, 122.6678°W)
Time: 08:44:03
(UTC+00:00)

Cosmos 2184 Rocket - Pass Details

Date: 25 November 2020
Orbit: 958 x 1003 km, 82.9° (Epoch: 25 January)

Event Time Altitude Azimuth Distance (km) Brightness Sun altitude
Rises 14:25:19 0° 201° (SSW) 3,666 7.0 -7.9°
Reaches altitude 10° 14:27:54 10° 206° (SSW) 2,729 6.3 -7.5°
Maximum altitude 14:33:57 50° 281° (W) 1,244 4.2 -6.4°
Drops below altitude 10° 14:40:07 10° 356° (N) 2,773 6.1 -5.3°
Sets 14:42:46 0° 2° (N) 3,730 6.8 -4.8°
